Content
SEND FEEDBACK

Daily
Averages
Monthly
Summary
United States of America

TAFT, CALIFORNIA


Home > North America > United States > California
Elevation: 659 feet     Latitude: 35 05N     Longitude: 119 23W

WEATHER
 
SELECT A DAY
Number of Records: 181,544;   Date Range: 1/1/95 - 7/28/14
 
SHARE

PRINT THIS DATA

[ ← Previous Day ]
WEATHER ALMANAC - JANUARY 31, 2013
[ Next Day → ]
[ °C ]   °F
Weather ElementAverageHighLow
Temperature52 °F66 °F (1:54 pm)39.9 °F (5:54 am)
Dewpoint40.4 °F43 °F (1:54 pm)36 °F (4:54 am)
Humidity66.6 %86 % (1:54 am)43 % (1:54 pm)
Barometer30.24 in30.30 in (8:54 am)30.18 in (2:54 pm)
Wind Speed2.6 mph6.9 mph (3:54 pm)
Weather ElementAverage
Visibility6.2 mi
Wind DirectionE (94.6 °)

Weather ElementTotal
Precipitation---
Heating Degree Days12.1 (Base 65)
Growing Degree Days3 (Base 50)
Averaged from 24 records on January 31, 2013
WEATHER CONDITIONS BREAKOUT
WIND DIRECTION BREAKOUT
WEATHER BY HOUR - JANUARY 31, 2013
[ °C ]   °F
Local TimeTemperatureDewpointHumidityBarometerVisibilityWind DirectionWind SpeedGust SpeedPrecipitationEventsConditions
1:54 AM41.0 °F37.0 °F86 %30.29 in6.0 miCalmClear
2:54 AM43.0 °F37.9 °F82 %30.27 in7.0 miCalmClear
3:54 AM41.0 °F37.0 °F86 %30.26 in6.0 miNorth (10°)3.5 mphClear
4:54 AM41.0 °F36.0 °F82 %30.26 in7.0 miENE (60°)3.5 mphClear
5:54 AM39.9 °F36.0 °F86 %30.27 in7.0 miCalmClear
6:54 AM41.0 °F36.0 °F82 %30.27 in5.0 miCalmHaze
7:54 AM44.1 °F39.0 °F82 %30.29 in4.0 miCalmHaze
8:54 AM46.0 °F39.0 °F76 %30.30 in6.0 miSE (140°)4.6 mphHaze
9:54 AM52.0 °F41.0 °F66 %30.30 in7.0 miCalmClear
10:54 AM57.0 °F41.0 °F55 %30.29 in6.0 miCalmHaze
11:40 AM57.2 °F39.2 °F51 %30.27 in1.8 miNW (320°)3.5 mphHaze
11:54 AM60.1 °F39.9 °F47 %30.26 in6.0 miCalmHaze
12:54 PM62.1 °F42.1 °F48 %30.22 in6.0 miWest (260°)5.8 mphHaze
1:54 PM66.0 °F43.0 °F43 %30.20 in9.0 miNW (320°)5.8 mphClear
2:54 PM66.0 °F43.0 °F43 %30.18 in7.0 miCalmClear
3:54 PM66.0 °F43.0 °F43 %30.18 in7.0 miWest (260°)6.9 mphClear
4:54 PM63.0 °F43.0 °F48 %30.18 in7.0 miWest (260°)4.6 mphClear
5:54 PM60.1 °F43.0 °F53 %30.19 in8.0 miWest (260°)3.5 mphClear
6:54 PM54.0 °F42.1 °F64 %30.20 in7.0 miCalmClear
7:54 PM52.0 °F43.0 °F71 %30.21 in7.0 miNE (40°)4.6 mphClear
8:54 PM51.1 °F43.0 °F74 %30.22 in6.0 miEast (80°)4.6 mphHaze
9:54 PM50.0 °F43.0 °F77 %30.22 in5.0 miESE (120°)6.9 mphHaze
10:54 PM48.9 °F42.1 °F77 %30.20 in6.0 miSE (140°)3.5 mphHaze
11:54 PM46.4 °F39.2 °F76 %30.20 in5.0 miCalmHaze
Hourly data recorded from KBFL, located miles away from Taft, California







STORIES FROM OUR PARTNERS